Вернуться в каталог

GAOFEN 9 02

АктивенНаукаSSO
NORAD 45625·PAYLOAD·🇨🇳 China

Запущен May 31, 2020 с Jiuquan Satellite Launch Center

Loading…

Ближайшие Пролёты (ближайшие 24 часа)

TLE

СвежийSource: Space-Track

Эпоха: Sep 14, 2026, 14:32 UTC

1 45625U 20034B   26257.60623892  .00004626  00000-0  17826-3 0  9994
2 45625  97.5863  56.2312 0013668 110.9768 249.2934 15.26770562349805

Отслеживайте GAOFEN 9 02 в реальном времени с AllMySat

Download on the App Store